This is the latest recevied weather packets stored in our database for station/object KD9WYV. If no packets are shown the sender has not sent any weather packets the latest 10 day(s).
| Time | Temp. | Humidity | Pressure | Rain* | Wind** | Luminosity | Snow |
|---|---|---|---|---|---|---|---|
| 1777495557 | 16.11° C | 52% | 1012.6 hPa | 0 mm | - | 807 W/m² | - |
| 1777495253 | 16.11° C | 52% | 1012.7 hPa | 0 mm | - | 333 W/m² | - |
| 1777494951 | 16.11° C | 52% | 1012.8 hPa | 0 mm | - | 440 W/m² | - |
| 1777494648 | 16.11° C | 52% | 1012.7 hPa | 0 mm | - | 625 W/m² | - |
| 1777494345 | 16.11° C | 54% | 1012.7 hPa | 0 mm | - | 291 W/m² | - |
| 1777494041 | 16.11° C | 52% | 1012.8 hPa | 0 mm | - | 327 W/m² | - |
| 1777493739 | 16.67° C | 51% | 1012.9 hPa | 0 mm | - | 287 W/m² | - |
| 1777493437 | 16.67° C | 51% | 1012.8 hPa | 0 mm | - | 523 W/m² | - |
| 1777493132 | 16.11° C | 51% | 1012.8 hPa | 0 mm | - | 367 W/m² | - |
| 1777492830 | 16.67° C | 56% | 1012.5 hPa | 0 mm | - | 372 W/m² | - |
| 1777492526 | 16.67° C | 55% | 1012.6 hPa | 0 mm | - | 336 W/m² | - |
| 1777492222 | 16.11° C | 57% | 1012.9 hPa | 0 mm | - | 399 W/m² | - |
| 1777491920 | 16.11° C | 56% | 1013 hPa | 0 mm | - | 347 W/m² | - |
| 1777491616 | 16.67° C | 55% | 1012.9 hPa | 0 mm | - | 280 W/m² | - |
| 1777491313 | 16.67° C | 53% | 1012.6 hPa | 0 mm | - | 836 W/m² | - |
| 1777491010 | 16.67° C | 53% | 1012.6 hPa | 0 mm | - | 350 W/m² | - |
| 1777490705 | 16.67° C | 56% | 1012.5 hPa | 0 mm | - | 405 W/m² | - |
| 1777490403 | 16.11° C | 55% | 1012.6 hPa | 0 mm | - | 359 W/m² | - |
| 1777490099 | 16.11° C | 56% | 1012.7 hPa | 0 mm | - | 338 W/m² | - |
| 1777489796 | 16.67° C | 54% | 1012.4 hPa | 0 mm | - | 342 W/m² | - |
| 1777489494 | 16.11° C | 57% | 1012.5 hPa | 0 mm | - | 493 W/m² | - |
| 1777489190 | 16.11° C | 56% | 1012.5 hPa | 0 mm | - | 265 W/m² | - |
| 1777488887 | 16.11° C | 56% | 1012.4 hPa | 0 mm | - | 290 W/m² | - |
| 1777488584 | 16.11° C | 57% | 1012.3 hPa | 0 mm | - | 227 W/m² | - |
| 1777488282 | 16.11° C | 57% | 1012.3 hPa | 0 mm | - | 263 W/m² | - |
* Rain latest hour (hover to see other rain measurements)
** Current wind speed in m/s (hover to see current wind gust speed)